FENGYUN 1C DEB

Satellite information

Favourite Embed

Satellite Type and Status

DEBRISIN ORBIT

Key statistics

Satellite FENGYUN 1C DEB at a glance.

Uptime

9714

Days in orbit

Revolutions

≈ 13.9

Per day

Orbit

SSO

Sun Synchronous Orbit

Inclination

99.1

Latest

Satellite identification and parameters

Extended collection of information and parameters for FENGYUN 1C DEB.

Object identification

Identified? True

Debris? True

Object name: FENGYUN 1C DEB

International designator: 1999-025EWX

Object number (NORAD): 40691

Object ID (CCSDS): 40691

Country: PEOPLES REPUBLIC OF CHINA (PRC)

Current information (Y/N): Y

RCS size: SMALL

Orbital parameters

Period: 103.601 minutes

Inclination: 99.0573 deg

SMA: 7306.962 km

Apoapsis: 1022.673 km

Periapsis: 834.98 km

RAAN: 9.8547 deg

Eccentricy: 0.0128434

Argument of periapsis: 336.6089 deg

Mean anomaly: 22.9259 deg

Mean motion: 13.89944729 rev/day

Mean motion (dot): 0.00000271 rev/day2

B* drag term: 0.00023937 1/REarth

Two-line elements (TLE)

Creation date: Dec. 3, 2025, 2:36 p.m.

Reference frame: TEME

Reference center: EARTH

Epoch: Dec. 3, 2025, 8:15 a.m. UTC

TLE line 0: 0 FENGYUN 1C DEB

TLE line 1: 1 40691U 99025EWX 25337.34377669 .00000271 00000-0 23937-3 0 9997

TLE line 2: 2 40691 99.0573 9.8547 0128434 336.6089 22.9259 13.89944729553058

Live tracking on map

Real-time ground track for satellite FENGYUN 1C DEB.

In-orbit conjunctions

A list of the most updated potential collisions computed for object FENGYUN 1C DEB.

Target Orbit TCA Probability of collision Miss distance Type
COSMOS 2297 LEO 2025-05-30 01:20:22 0.0001532206 295.0 (m) PAYLOAD
COSMOS 2366 LEO 2025-01-08 23:38:12 0.0001411713 117.0 (m) PAYLOAD
COSMOS 2251 DEB LEO 2024-11-10 02:23:52 0.0003944061 471.0 (m) DEBRIS
FENGYUN 1C DEB SSO 2024-11-07 20:26:36 0.0006256443 327.0 (m) DEBRIS
COSMOS 1275 DEB LEO 2024-07-17 18:30:19 0.0002321909 60.0 (m) DEBRIS

Associated space launch

Chinese polar orbiting meteorological satellite

FENGYUN 1C DEB was lifted into orbit during the mission ‘Long March 4B | Feng Yun 1C’, on board a Long March 4B space rocket.

The launch took place on May 10, 1999, 1:33 a.m. from Launch Complex 7.

For more information about the launch, click the button.

Launch to space Long March 4B | Feng Yun 1C
Long March 4B | Feng Yun 1C

Agency: N/A

Status: Launch Successful

Launch date: May 10, 1999, 1:33 a.m. UTC

Rocket: Long March 4B

Launch pad: Launch Complex 7

Location: Taiyuan Satellite Launch Center, People's Republic of China

...

Latest news about this satellite

There are no fresh news available about this satellite. Check back as we update our databases every day.


Newsletter sign-up

Weekly statistics, charts and insights to help you stay on top of the space industry.